Location: Lake Sonoma
(38.7200°N, 123.0564°W)
Time: 12:29:16
(UTC-07:00)

ISS - Visible Passes

Search period start: 21 September 2017 00:00
Search period end: 01 October 2017 00:00
Orbit: 401 x 407 km, 51.6° (Epoch: 22 September)

Date Brightness Start Highest point End Pass type
(mag) Time Alt. Az. Time Alt. Az. Time Alt. Az.
21 Sep -3.1 05:16:02 43° SSE 05:16:02 43° SSE 05:18:24 10° SE visible
22 Sep -1.6 05:59:52 13° SSW 05:59:52 13° SSW 06:00:43 10° SSW visible
23 Sep -2.1 20:07:07 10° S 20:09:01 17° SE 20:09:01 17° SE visible
24 Sep -3.2 20:49:58 10° SW 20:52:28 50° SW 20:52:28 50° SW visible
25 Sep -3.5 19:57:49 10° SSW 20:00:56 44° SE 20:02:58 19° ENE visible
25 Sep -0.6 21:34:52 10° W 21:35:39 14° WNW 21:35:39 14° WNW visible
26 Sep -2.4 20:41:59 10° WSW 20:45:03 36° NNW 20:45:56 30° N visible
27 Sep -3.6 19:49:22 10° WSW 19:52:37 69° NW 19:55:53 10° NE visible
27 Sep -0.6 21:27:42 10° NW 21:28:41 13° NW 21:28:41 13° NW visible
28 Sep -1.4 20:34:27 10° WNW 20:36:57 20° NNW 20:38:37 14° NNE visible
29 Sep -2.1 19:41:27 10° W 19:44:23 30° NNW 19:47:20 10° NE visible
29 Sep -0.5 21:21:04 10° NNW 21:21:05 10° NNW 21:21:05 10° NNW visible
30 Sep -1.0 20:27:19 10° NW 20:28:57 13° NNW 20:30:34 10° NNE visible
